Time,TemperatureF,DewpointF,PressureIn,WindDirection,WindDirectionDegrees,WindSpeedMPH,WindSpeedGustMPH,Humidity,HourlyPrecipIn,Conditions,Clouds,dailyrainin,SolarRadiationWatts/m^2,SoftwareType,DateUTC
2013-08-01 00:02:00,61.2,54.3,30.03,NW,325,0.0,4.0,78,0.00,,---,0.02,0.00,VWS V14.01,2013-08-01 05:02:00,
2013-08-01 00:07:00,61.1,54.2,30.03,NW,325,0.0,0.0,78,0.00,,---,0.00,0.00,VWS V14.01,2013-08-01 05:07:00,
2013-08-01 00:12:00,60.8,53.5,30.03,NW,325,0.0,0.0,77,0.00,,---,0.00,0.00,VWS V14.01,2013-08-01 05:12:00,
2013-08-01 00:17:00,60.5,53.6,30.03,NW,325,0.0,0.0,78,0.00,,---,0.00,0.00,VWS V14.01,2013-08-01 05:17:00,
2013-08-01 00:22:00,60.2,53.7,30.03,NW,325,0.0,0.0,79,0.00,,---,0.00,0.00,VWS V14.01,2013-08-01 05:22:00,
2013-08-01 00:27:00,59.9,53.7,30.04,NW,325,0.0,0.0,80,0.00,,---,0.00,0.00,VWS V14.01,2013-08-01 05:27:00,
2013-08-01 00:32:00,59.6,53.8,30.04,NW,325,0.0,0.0,81,0.00,,---,0.00,0.00,VWS V14.01,2013-08-01 05:32:00,
2013-08-01 00:37:00,59.4,53.9,30.04,NW,325,0.0,0.0,82,0.00,,---,0.00,0.00,VWS V14.01,2013-08-01 05:37:00,
2013-08-01 00:42:00,59.1,53.6,30.04,NW,325,0.0,0.0,82,0.00,,---,0.00,0.00,VWS V14.01,2013-08-01 05:42:00,
2013-08-01 00:47:00,59.3,53.8,30.04,NW,325,0.0,0.0,82,0.00,,---,0.00,0.00,VWS V14.01,2013-08-01 05:47:00,
2013-08-01 00:52:00,59.3,54.2,30.03,NW,325,0.0,0.0,83,0.00,,---,0.00,0.00,VWS V14.01,2013-08-01 05:52:00,
2013-08-01 00:57:00,59.1,54.0,30.04,NW,325,0.0,0.0,83,0.00,,---,0.00,0.00,VWS V14.01,2013-08-01 05:57:00,
2013-08-01 01:02:00,59.0,54.5,30.03,NW,325,0.0,0.0,85,0.00,,---,0.00,0.00,VWS V14.01,2013-08-01 06:02:00,
2013-08-01 01:07:00,58.9,54.7,30.03,NW,325,0.0,0.0,86,0.00,,---,0.00,0.00,VWS V14.01,2013-08-01 06:07:00,
2013-08-01 01:12:00,58.5,54.3,30.03,NW,325,0.0,0.0,86,0.00,,---,0.00,0.00,VWS V14.01,2013-08-01 06:12:00,
2013-08-01 01:17:00,58.4,54.5,30.03,NW,325,0.0,0.0,87,0.00,,---,0.00,0.00,VWS V14.01,2013-08-01 06:17:00,
2013-08-01 01:22:00,58.4,54.5,30.03,NW,325,0.0,0.0,87,0.00,,---,0.00,0.00,VWS V14.01,2013-08-01 06:22:00,
2013-08-01 01:27:00,58.4,54.5,30.03,NW,325,0.0,0.0,87,0.00,,---,0.00,0.00,VWS V14.01,2013-08-01 06:27:00,
2013-08-01 01:32:00,58.3,54.5,30.03,NW,325,0.0,0.0,87,0.00,,---,0.00,0.00,VWS V14.01,2013-08-01 06:32:00,
2013-08-01 01:37:00,58.3,54.5,30.03,NW,325,0.0,0.0,87,0.00,,---,0.00,0.00,VWS V14.01,2013-08-01 06:37:00,
2013-08-01 01:42:00,58.3,54.5,30.03,NW,325,0.0,0.0,87,0.00,,---,0.00,0.00,VWS V14.01,2013-08-01 06:42:00,
2013-08-01 01:47:00,58.2,54.4,30.03,NW,325,0.0,0.0,87,0.00,,---,0.00,0.00,VWS V14.01,2013-08-01 06:47:00,
2013-08-01 01:52:00,58.0,54.2,30.03,NW,325,0.0,0.0,87,0.00,,---,0.00,0.00,VWS V14.01,2013-08-01 06:52:00,
2013-08-01 01:58:00,57.7,53.9,30.02,NW,325,0.0,0.0,87,0.00,,---,0.00,0.00,VWS V14.01,2013-08-01 06:58:00,
2013-08-01 02:03:00,57.5,54.0,30.02,NW,325,0.0,0.0,88,0.00,,---,0.00,0.00,VWS V14.01,2013-08-01 07:03:00,
2013-08-01 02:08:00,57.4,53.9,30.03,NW,325,0.0,0.0,88,0.00,,---,0.00,0.00,VWS V14.01,2013-08-01 07:08:00,
2013-08-01 02:13:00,57.2,53.4,30.03,NW,325,0.0,0.0,87,0.00,,---,0.00,0.00,VWS V14.01,2013-08-01 07:13:00,
2013-08-01 02:18:00,57.1,53.6,30.03,NW,325,0.0,0.0,88,0.00,,---,0.00,0.00,VWS V14.01,2013-08-01 07:18:00,
2013-08-01 02:23:00,56.9,53.1,30.03,NW,325,0.0,0.0,87,0.00,,---,0.00,0.00,VWS V14.01,2013-08-01 07:23:00,
2013-08-01 02:28:00,56.7,52.9,30.03,NW,325,0.0,0.0,87,0.00,,---,0.00,0.00,VWS V14.01,2013-08-01 07:28:00,
2013-08-01 02:33:00,56.4,52.6,30.02,NW,325,0.0,0.0,87,0.00,,---,0.00,0.00,VWS V14.01,2013-08-01 07:33:00,
2013-08-01 02:38:00,56.2,52.4,30.02,NW,325,0.0,0.0,87,0.00,,---,0.00,0.00,VWS V14.01,2013-08-01 07:38:00,
2013-08-01 02:43:00,56.2,53.0,30.02,NW,325,0.0,0.0,89,0.00,,---,0.00,0.00,VWS V14.01,2013-08-01 07:43:00,
2013-08-01 02:48:00,56.0,52.8,30.02,NW,325,0.0,0.0,89,0.00,,---,0.00,0.00,VWS V14.01,2013-08-01 07:48:00,
2013-08-01 02:53:00,55.9,52.7,30.02,NW,325,0.0,0.0,89,0.00,,---,0.00,0.00,VWS V14.01,2013-08-01 07:53:00,
2013-08-01 02:58:00,55.8,52.6,30.03,NW,325,0.0,0.0,89,0.00,,---,0.00,0.00,VWS V14.01,2013-08-01 07:58:00,
2013-08-01 03:03:00,55.6,52.4,30.03,NW,325,0.0,0.0,89,0.00,,---,0.00,0.00,VWS V14.01,2013-08-01 08:03:00,
2013-08-01 03:08:00,55.4,52.2,30.02,NW,325,0.0,0.0,89,0.00,,---,0.00,0.00,VWS V14.01,2013-08-01 08:08:00,
2013-08-01 03:13:00,55.3,52.1,30.02,NW,325,0.0,0.0,89,0.00,,---,0.00,0.00,VWS V14.01,2013-08-01 08:13:00,
2013-08-01 03:18:00,55.1,51.9,30.02,NW,325,0.0,0.0,89,0.00,,---,0.00,0.00,VWS V14.01,2013-08-01 08:18:00,
2013-08-01 03:23:00,55.1,51.9,30.02,NW,325,0.0,0.0,89,0.00,,---,0.00,0.00,VWS V14.01,2013-08-01 08:23:00,
2013-08-01 03:28:00,55.0,51.8,30.02,NW,325,0.0,0.0,89,0.00,,---,0.00,0.00,VWS V14.01,2013-08-01 08:28:00,
2013-08-01 03:33:00,54.8,51.6,30.02,NW,325,0.0,0.0,89,0.00,,---,0.00,0.00,VWS V14.01,2013-08-01 08:33:00,
2013-08-01 03:38:00,54.7,51.5,30.02,NW,325,0.0,0.0,89,0.00,,---,0.00,0.00,VWS V14.01,2013-08-01 08:38:00,
2013-08-01 03:43:00,54.6,51.4,30.02,NW,325,0.0,0.0,89,0.00,,---,0.00,0.00,VWS V14.01,2013-08-01 08:43:00,
2013-08-01 03:48:00,54.5,51.6,30.02,NW,325,0.0,0.0,90,0.00,,---,0.00,0.00,VWS V14.01,2013-08-01 08:48:00,
2013-08-01 03:53:00,54.4,51.8,30.02,NW,325,0.0,0.0,91,0.00,,---,0.00,0.00,VWS V14.01,2013-08-01 08:53:00,
2013-08-01 03:59:00,54.1,51.5,30.02,NW,325,0.0,0.0,91,0.00,,---,0.00,0.00,VWS V14.01,2013-08-01 08:59:00,
2013-08-01 04:04:00,53.9,51.3,30.02,NW,325,0.0,0.0,91,0.00,,---,0.00,0.00,VWS V14.01,2013-08-01 09:04:00,
2013-08-01 04:09:00,54.0,51.7,30.03,NW,325,0.0,0.0,92,0.00,,---,0.00,0.00,VWS V14.01,2013-08-01 09:09:00,
2013-08-01 04:15:00,54.3,52.0,30.03,NW,325,0.0,0.0,92,0.00,,---,0.00,0.00,VWS V14.01,2013-08-01 09:15:00,
2013-08-01 04:20:00,54.2,51.9,30.02,NW,325,0.0,0.0,92,0.00,,---,0.00,0.00,VWS V14.01,2013-08-01 09:20:00,
2013-08-01 04:25:00,54.0,51.7,30.02,NW,325,0.0,0.0,92,0.00,,---,0.00,0.00,VWS V14.01,2013-08-01 09:25:00,
2013-08-01 04:30:00,53.9,51.9,30.02,NW,325,0.0,0.0,93,0.00,,---,0.00,0.00,VWS V14.01,2013-08-01 09:30:00,
2013-08-01 04:35:00,53.9,51.6,30.02,NW,325,0.0,0.0,92,0.00,,---,0.00,0.00,VWS V14.01,2013-08-01 09:35:00,
2013-08-01 04:40:00,53.7,51.4,30.02,NW,325,0.0,0.0,92,0.00,,---,0.00,0.00,VWS V14.01,2013-08-01 09:40:00,
2013-08-01 04:45:00,53.5,51.2,30.02,NW,325,0.0,0.0,92,0.00,,---,0.00,0.00,VWS V14.01,2013-08-01 09:45:00,
2013-08-01 04:50:00,53.4,51.1,30.02,NW,325,0.0,0.0,92,0.00,,---,0.00,0.00,VWS V14.01,2013-08-01 09:50:00,
2013-08-01 04:55:00,53.3,51.0,30.02,NW,325,0.0,0.0,92,0.00,,---,0.00,0.00,VWS V14.01,2013-08-01 09:55:00,
2013-08-01 05:01:00,53.3,51.0,30.02,NW,325,0.0,0.0,92,0.00,,---,0.00,0.00,VWS V14.01,2013-08-01 10:01:00,
2013-08-01 05:06:00,53.2,50.9,30.02,NW,325,0.0,0.0,92,0.00,,---,0.00,0.00,VWS V14.01,2013-08-01 10:06:00,
2013-08-01 05:11:00,53.2,50.9,30.02,NW,325,0.0,0.0,92,0.00,,---,0.00,0.00,VWS V14.01,2013-08-01 10:11:00,
2013-08-01 05:16:00,53.2,50.9,30.02,NW,325,0.0,0.0,92,0.00,,---,0.00,0.00,VWS V14.01,2013-08-01 10:16:00,
2013-08-01 05:21:00,53.2,51.2,30.02,NW,325,0.0,0.0,93,0.00,,---,0.00,0.00,VWS V14.01,2013-08-01 10:21:00,
2013-08-01 05:26:00,53.2,51.2,30.02,NW,325,0.0,0.0,93,0.00,,---,0.00,0.00,VWS V14.01,2013-08-01 10:26:00,
2013-08-01 05:32:00,53.3,51.3,30.02,NW,325,0.0,0.0,93,0.00,,---,0.00,0.00,VWS V14.01,2013-08-01 10:32:00,
2013-08-01 05:38:00,53.4,51.4,30.02,NW,325,0.0,0.0,93,0.00,,---,0.00,0.00,VWS V14.01,2013-08-01 10:38:00,
2013-08-01 05:43:00,53.2,51.2,30.02,NW,325,0.0,0.0,93,0.00,,---,0.00,0.00,VWS V14.01,2013-08-01 10:43:00,
2013-08-01 05:48:00,52.9,50.9,30.02,NW,325,0.0,0.0,93,0.00,,---,0.00,0.00,VWS V14.01,2013-08-01 10:48:00,
2013-08-01 05:53:00,52.8,50.8,30.02,NW,325,0.0,0.0,93,0.00,,---,0.00,0.00,VWS V14.01,2013-08-01 10:53:00,
2013-08-01 05:58:00,52.4,50.4,30.01,NW,325,0.0,0.0,93,0.00,,---,0.00,0.00,VWS V14.01,2013-08-01 10:58:00,
2013-08-01 06:04:00,52.2,50.0,30.01,NW,325,0.0,0.0,92,0.00,,---,0.00,0.00,VWS V14.01,2013-08-01 11:04:00,
2013-08-01 06:09:00,52.0,50.0,30.01,NW,325,0.0,0.0,93,0.00,,---,0.00,5.00,VWS V14.01,2013-08-01 11:09:00,
2013-08-01 06:14:00,51.9,49.9,30.01,NW,325,0.0,0.0,93,0.00,,---,0.00,9.00,VWS V14.01,2013-08-01 11:14:00,
2013-08-01 06:19:00,51.9,49.9,30.01,NW,325,0.0,0.0,93,0.00,,---,0.00,12.00,VWS V14.01,2013-08-01 11:19:00,
2013-08-01 06:25:00,51.9,49.9,30.01,NW,325,0.0,0.0,93,0.00,,---,0.00,19.00,VWS V14.01,2013-08-01 11:25:00,
2013-08-01 06:30:00,51.9,49.9,30.01,NW,325,0.0,0.0,93,0.00,,---,0.00,25.00,VWS V14.01,2013-08-01 11:30:00,
2013-08-01 06:35:00,51.9,49.9,30.01,NW,325,0.0,0.0,93,0.00,,---,0.00,33.00,VWS V14.01,2013-08-01 11:35:00,
2013-08-01 06:41:00,52.1,50.4,30.02,NW,325,0.0,0.0,94,0.00,,---,0.00,44.00,VWS V14.01,2013-08-01 11:41:00,
2013-08-01 06:46:00,52.5,50.8,30.02,NW,325,0.0,1.0,94,0.00,,---,0.00,53.00,VWS V14.01,2013-08-01 11:46:00,
2013-08-01 06:51:00,52.6,50.9,30.01,NW,325,0.0,0.0,94,0.00,,---,0.00,67.00,VWS V14.01,2013-08-01 11:51:00,
2013-08-01 06:56:00,52.8,51.1,30.01,NW,325,0.0,0.0,94,0.00,,---,0.00,79.00,VWS V14.01,2013-08-01 11:56:00,
2013-08-01 07:01:00,53.0,51.3,30.01,NW,323,0.0,0.0,94,0.00,,---,0.00,91.00,VWS V14.01,2013-08-01 12:01:00,
2013-08-01 07:06:00,53.2,51.5,30.01,NW,325,0.0,0.0,94,0.00,,---,0.00,105.00,VWS V14.01,2013-08-01 12:06:00,
2013-08-01 07:11:00,53.8,52.4,30.01,NW,325,0.0,0.0,95,0.00,,---,0.00,134.00,VWS V14.01,2013-08-01 12:11:00,
2013-08-01 07:16:00,54.5,53.1,30.01,NW,325,0.0,0.0,95,0.00,,---,0.00,158.00,VWS V14.01,2013-08-01 12:16:00,
2013-08-01 07:21:00,55.2,53.8,30.02,NW,325,0.0,0.0,95,0.00,,---,0.00,165.00,VWS V14.01,2013-08-01 12:21:00,
2013-08-01 07:27:00,56.0,54.6,30.02,NW,325,2.0,3.0,95,0.00,,---,0.00,221.00,VWS V14.01,2013-08-01 12:27:00,
2013-08-01 07:32:00,56.7,55.0,30.02,NW,325,0.0,3.0,94,0.00,,---,0.00,206.00,VWS V14.01,2013-08-01 12:32:00,
2013-08-01 07:37:00,57.5,55.8,30.01,NW,325,0.0,1.0,94,0.00,,---,0.00,274.00,VWS V14.01,2013-08-01 12:37:00,
2013-08-01 07:42:00,58.1,56.1,30.01,NW,325,0.0,1.0,93,0.00,,---,0.00,276.00,VWS V14.01,2013-08-01 12:42:00,
2013-08-01 07:47:00,59.0,56.7,30.01,NW,325,2.0,2.0,92,0.00,,---,0.00,309.00,VWS V14.01,2013-08-01 12:47:00,
2013-08-01 07:52:00,60.1,57.2,30.01,NW,325,0.0,3.0,90,0.00,,---,0.00,332.00,VWS V14.01,2013-08-01 12:52:00,
2013-08-01 07:57:00,61.1,57.2,30.01,NW,325,2.0,3.0,87,0.00,,---,0.00,260.00,VWS V14.01,2013-08-01 12:57:00,
2013-08-01 08:02:00,62.0,56.8,30.01,NW,325,2.0,4.0,83,0.00,,---,0.00,76.00,VWS V14.01,2013-08-01 13:02:00,
2013-08-01 08:08:00,62.6,56.3,30.01,NW,325,1.0,3.0,80,0.00,,---,0.00,63.00,VWS V14.01,2013-08-01 13:08:00,
2013-08-01 08:13:00,62.8,56.2,30.01,NW,325,0.0,3.0,79,0.00,,---,0.00,63.00,VWS V14.01,2013-08-01 13:13:00,
2013-08-01 08:18:00,62.9,56.6,30.01,NW,325,0.0,3.0,80,0.00,,---,0.00,63.00,VWS V14.01,2013-08-01 13:18:00,
2013-08-01 08:23:00,63.0,56.7,30.01,NW,325,0.0,0.0,80,0.00,,---,0.00,130.00,VWS V14.01,2013-08-01 13:23:00,
2013-08-01 08:28:00,63.3,56.7,30.01,NW,325,2.0,2.0,79,0.00,,---,0.00,388.00,VWS V14.01,2013-08-01 13:28:00,
2013-08-01 08:33:00,64.1,57.5,30.01,NW,325,1.0,4.0,79,0.00,,---,0.00,276.00,VWS V14.01,2013-08-01 13:33:00,
2013-08-01 08:38:00,64.5,57.1,30.01,NW,325,0.0,2.0,77,0.00,,---,0.00,420.00,VWS V14.01,2013-08-01 13:38:00,
2013-08-01 08:43:00,65.2,58.2,30.01,NW,325,0.0,2.0,78,0.00,,---,0.00,441.00,VWS V14.01,2013-08-01 13:43:00,
2013-08-01 08:48:00,66.1,57.2,30.01,SW,218,7.0,7.0,73,0.00,,---,0.00,221.00,VWS V14.01,2013-08-01 13:48:00,
2013-08-01 08:54:00,66.7,56.2,30.01,SSW,199,2.0,7.0,69,0.00,,---,0.00,257.00,VWS V14.01,2013-08-01 13:54:00,
2013-08-01 08:59:00,67.3,56.8,30.01,South,183,4.0,7.0,69,0.00,,---,0.00,487.00,VWS V14.01,2013-08-01 13:59:00,
2013-08-01 09:04:00,68.0,57.1,30.01,SSW,193,2.0,6.0,68,0.00,,---,0.00,548.00,VWS V14.01,2013-08-01 14:04:00,
2013-08-01 09:11:00,69.3,56.2,30.01,SSW,202,7.0,7.0,63,0.00,,---,0.00,360.00,VWS V14.01,2013-08-01 14:11:00,
2013-08-01 09:16:00,69.6,56.0,30.01,SSW,205,5.0,7.0,62,0.00,,---,0.00,216.00,VWS V14.01,2013-08-01 14:16:00,
2013-08-01 09:21:00,70.5,56.0,30.01,South,191,6.0,9.0,60,0.00,,---,0.00,533.00,VWS V14.01,2013-08-01 14:21:00,
2013-08-01 09:26:00,70.9,57.2,30.01,SSW,196,4.0,10.0,62,0.00,,---,0.00,290.00,VWS V14.01,2013-08-01 14:26:00,
2013-08-01 09:31:00,71.3,57.2,30.01,SSW,200,6.0,10.0,61,0.00,,---,0.00,596.00,VWS V14.01,2013-08-01 14:31:00,
2013-08-01 09:36:00,72.4,56.3,30.00,SSW,194,7.0,10.0,57,0.00,,---,0.00,529.00,VWS V14.01,2013-08-01 14:36:00,
2013-08-01 09:41:00,73.1,54.5,30.00,South,190,5.0,11.0,52,0.00,,---,0.00,603.00,VWS V14.01,2013-08-01 14:41:00,
2013-08-01 09:47:00,73.6,54.4,29.99,South,186,9.0,11.0,51,0.00,,---,0.00,613.00,VWS V14.01,2013-08-01 14:47:00,
2013-08-01 09:52:00,74.1,53.7,30.00,SSW,194,10.0,10.0,49,0.00,,---,0.00,605.00,VWS V14.01,2013-08-01 14:52:00,
2013-08-01 09:57:00,74.3,53.9,30.00,SSW,202,6.0,12.0,49,0.00,,---,0.00,608.00,VWS V14.01,2013-08-01 14:57:00,
2013-08-01 10:02:00,74.8,54.9,30.00,SSW,205,6.0,12.0,50,0.00,,---,0.00,629.00,VWS V14.01,2013-08-01 15:02:00,
2013-08-01 10:07:00,75.4,54.4,30.00,South,171,6.0,6.0,48,0.00,,---,0.00,654.00,VWS V14.01,2013-08-01 15:07:00,
2013-08-01 10:13:00,75.7,54.6,30.00,SSE,158,5.0,10.0,48,0.00,,---,0.00,691.00,VWS V14.01,2013-08-01 15:13:00,
2013-08-01 10:18:00,75.8,53.6,30.00,SSE,161,7.0,10.0,46,0.00,,---,0.00,666.00,VWS V14.01,2013-08-01 15:18:00,
2013-08-01 10:24:00,76.1,53.8,29.99,SSE,163,6.0,9.0,46,0.00,,---,0.00,684.00,VWS V14.01,2013-08-01 15:24:00,
2013-08-01 10:29:00,76.5,53.6,29.99,SSE,167,4.0,9.0,45,0.00,,---,0.00,700.00,VWS V14.01,2013-08-01 15:29:00,
2013-08-01 10:34:00,76.9,53.3,30.00,SSW,196,3.0,4.0,44,0.00,,---,0.00,745.00,VWS V14.01,2013-08-01 15:34:00,
2013-08-01 10:39:00,77.3,52.5,30.00,South,178,4.0,10.0,42,0.00,,---,0.00,763.00,VWS V14.01,2013-08-01 15:39:00,
2013-08-01 10:44:00,77.4,52.5,29.99,South,175,8.0,11.0,42,0.00,,---,0.00,770.00,VWS V14.01,2013-08-01 15:44:00,
2013-08-01 10:50:00,77.3,52.5,30.00,South,178,5.0,6.0,42,0.00,,---,0.00,777.00,VWS V14.01,2013-08-01 15:50:00,
2013-08-01 10:55:00,77.5,53.3,30.00,SSE,159,6.0,12.0,43,0.00,,---,0.00,747.00,VWS V14.01,2013-08-01 15:55:00,
2013-08-01 11:00:00,77.8,54.2,29.99,SSE,167,3.0,12.0,44,0.00,,---,0.00,722.00,VWS V14.01,2013-08-01 16:00:00,
2013-08-01 11:06:00,77.9,54.3,29.99,South,169,5.0,13.0,44,0.00,,---,0.00,768.00,VWS V14.01,2013-08-01 16:06:00,
2013-08-01 11:11:00,77.9,54.3,29.99,South,175,3.0,13.0,44,0.00,,---,0.00,805.00,VWS V14.01,2013-08-01 16:11:00,
2013-08-01 11:16:00,78.4,54.1,29.99,SE,138,9.0,13.0,43,0.00,,---,0.00,817.00,VWS V14.01,2013-08-01 16:16:00,
2013-08-01 11:21:00,78.3,55.2,29.99,SSE,149,11.0,13.0,45,0.00,,---,0.00,819.00,VWS V14.01,2013-08-01 16:21:00,
2013-08-01 11:27:00,77.9,55.5,29.99,South,176,3.0,13.0,46,0.00,,---,0.00,821.00,VWS V14.01,2013-08-01 16:27:00,
2013-08-01 11:32:00,77.5,54.5,29.99,SSE,167,4.0,13.0,45,0.00,,---,0.00,847.00,VWS V14.01,2013-08-01 16:32:00,
2013-08-01 11:37:00,77.8,55.4,29.98,SSE,167,7.0,13.0,46,0.00,,---,0.00,816.00,VWS V14.01,2013-08-01 16:37:00,
2013-08-01 11:42:00,78.2,56.3,29.98,SE,142,4.0,13.0,47,0.00,,---,0.00,865.00,VWS V14.01,2013-08-01 16:42:00,
2013-08-01 11:47:00,78.6,56.1,29.98,SSE,148,10.0,13.0,46,0.00,,---,0.00,882.00,VWS V14.01,2013-08-01 16:47:00,
2013-08-01 11:52:00,78.8,56.3,29.97,ESE,119,11.0,13.0,46,0.00,,---,0.00,837.00,VWS V14.01,2013-08-01 16:52:00,
2013-08-01 11:57:00,79.1,56.6,29.97,SE,137,9.0,13.0,46,0.00,,---,0.00,872.00,VWS V14.01,2013-08-01 16:57:00,
2013-08-01 12:02:00,79.1,57.2,29.97,SSW,203,8.0,13.0,47,0.00,,---,0.00,888.00,VWS V14.01,2013-08-01 17:02:00,
2013-08-01 12:08:00,79.4,57.4,29.97,South,173,7.0,11.0,47,0.00,,---,0.00,682.00,VWS V14.01,2013-08-01 17:08:00,
2013-08-01 12:13:00,79.3,57.9,29.97,SW,215,4.0,11.0,48,0.00,,---,0.00,921.00,VWS V14.01,2013-08-01 17:13:00,
2013-08-01 12:18:00,78.7,58.0,29.97,SSW,195,2.0,13.0,49,0.00,,---,0.00,863.00,VWS V14.01,2013-08-01 17:18:00,
2013-08-01 12:24:00,79.0,58.2,29.97,SSE,160,8.0,14.0,49,0.00,,---,0.00,889.00,VWS V14.01,2013-08-01 17:24:00,
2013-08-01 12:29:00,79.6,58.8,29.96,SSE,149,7.0,14.0,49,0.00,,---,0.00,981.00,VWS V14.01,2013-08-01 17:29:00,
2013-08-01 12:34:00,79.7,59.4,29.95,SSE,148,11.0,11.0,50,0.00,,---,0.00,949.00,VWS V14.01,2013-08-01 17:34:00,
2013-08-01 12:39:00,79.3,58.5,29.95,SE,146,5.0,12.0,49,0.00,,---,0.00,594.00,VWS V14.01,2013-08-01 17:39:00,
2013-08-01 12:44:00,79.1,60.0,29.95,SSE,150,8.0,12.0,52,0.00,,---,0.00,995.00,VWS V14.01,2013-08-01 17:44:00,
2013-08-01 12:50:00,79.5,60.3,29.95,SE,146,11.0,13.0,52,0.00,,---,0.00,902.00,VWS V14.01,2013-08-01 17:50:00,
2013-08-01 12:55:00,79.7,60.0,29.95,SE,142,8.0,13.0,51,0.00,,---,0.00,998.00,VWS V14.01,2013-08-01 17:55:00,
2013-08-01 13:00:00,79.9,60.7,29.94,South,177,13.0,13.0,52,0.00,,---,0.00,881.00,VWS V14.01,2013-08-01 18:00:00,
2013-08-01 13:05:00,80.0,60.8,29.93,SSE,163,11.0,11.0,52,0.00,,---,0.00,638.00,VWS V14.01,2013-08-01 18:05:00,
2013-08-01 13:10:00,80.3,61.6,29.94,South,180,14.0,14.0,53,0.00,,---,0.00,958.00,VWS V14.01,2013-08-01 18:10:00,
2013-08-01 13:15:00,80.7,60.9,29.93,SSE,164,6.0,14.0,51,0.00,,---,0.00,962.00,VWS V14.01,2013-08-01 18:15:00,
2013-08-01 13:20:00,80.8,62.1,29.93,SSE,156,7.0,10.0,53,0.00,,---,0.00,907.00,VWS V14.01,2013-08-01 18:20:00,
2013-08-01 13:25:00,81.2,61.9,29.93,SSW,206,7.0,13.0,52,0.00,,---,0.00,888.00,VWS V14.01,2013-08-01 18:25:00,
2013-08-01 13:30:00,81.7,62.4,29.92,SSW,192,6.0,13.0,52,0.00,,---,0.00,937.00,VWS V14.01,2013-08-01 18:30:00,
2013-08-01 13:36:00,81.5,61.7,29.92,SSE,149,5.0,12.0,51,0.00,,---,0.00,837.00,VWS V14.01,2013-08-01 18:36:00,
2013-08-01 13:41:00,81.4,62.6,29.92,SSW,206,9.0,12.0,53,0.00,,---,0.00,921.00,VWS V14.01,2013-08-01 18:41:00,
2013-08-01 13:46:00,81.8,62.5,29.92,SSE,163,10.0,13.0,52,0.00,,---,0.00,981.00,VWS V14.01,2013-08-01 18:46:00,
2013-08-01 13:51:00,82.2,62.8,29.92,SSE,152,9.0,9.0,52,0.00,,---,0.00,940.00,VWS V14.01,2013-08-01 18:51:00,
2013-08-01 13:56:00,82.3,62.9,29.92,SE,128,6.0,14.0,52,0.00,,---,0.00,1000.00,VWS V14.01,2013-08-01 18:56:00,
2013-08-01 14:01:00,81.7,63.5,29.92,SSE,162,8.0,17.0,54,0.00,,---,0.00,429.00,VWS V14.01,2013-08-01 19:01:00,
2013-08-01 14:07:00,82.0,63.7,29.91,South,176,9.0,11.0,54,0.00,,---,0.00,810.00,VWS V14.01,2013-08-01 19:07:00,
2013-08-01 14:12:00,82.1,64.3,29.91,SSE,165,1.0,14.0,55,0.00,,---,0.00,962.00,VWS V14.01,2013-08-01 19:12:00,
2013-08-01 14:17:00,83.0,64.1,29.91,SE,140,7.0,14.0,53,0.00,,---,0.00,984.00,VWS V14.01,2013-08-01 19:17:00,
2013-08-01 14:22:00,82.8,63.9,29.91,SSW,192,4.0,12.0,53,0.00,,---,0.00,339.00,VWS V14.01,2013-08-01 19:22:00,
2013-08-01 14:27:00,82.9,64.0,29.91,SSE,150,3.0,12.0,53,0.00,,---,0.00,1018.00,VWS V14.01,2013-08-01 19:27:00,
2013-08-01 14:32:00,83.1,64.2,29.90,South,188,0.0,12.0,53,0.00,,---,0.00,840.00,VWS V14.01,2013-08-01 19:32:00,
2013-08-01 14:37:00,83.2,64.3,29.90,SE,140,1.0,5.0,53,0.00,,---,0.00,775.00,VWS V14.01,2013-08-01 19:37:00,
2013-08-01 14:43:00,83.7,63.1,29.90,WSW,248,10.0,14.0,50,0.00,,---,0.00,761.00,VWS V14.01,2013-08-01 19:43:00,
2013-08-01 14:48:00,83.9,61.5,29.89,WNW,300,7.0,14.0,47,0.00,,---,0.00,812.00,VWS V14.01,2013-08-01 19:48:00,
2013-08-01 14:53:00,83.4,61.7,29.89,WNW,300,9.0,12.0,48,0.00,,---,0.00,357.00,VWS V14.01,2013-08-01 19:53:00,
2013-08-01 14:58:00,83.0,63.0,29.89,NNW,327,5.0,12.0,51,0.00,,---,0.00,719.00,VWS V14.01,2013-08-01 19:58:00,
2013-08-01 15:03:00,82.7,62.2,29.89,NW,311,11.0,13.0,50,0.00,,---,0.00,617.00,VWS V14.01,2013-08-01 20:03:00,
2013-08-01 15:09:00,82.4,62.5,29.89,NW,320,7.0,12.0,51,0.00,,---,0.00,341.00,VWS V14.01,2013-08-01 20:09:00,
2013-08-01 15:14:00,82.5,62.6,29.89,NNW,336,9.0,12.0,51,0.00,,---,0.00,824.00,VWS V14.01,2013-08-01 20:14:00,
2013-08-01 15:19:00,82.6,63.2,29.88,NNW,329,8.0,10.0,52,0.00,,---,0.00,761.00,VWS V14.01,2013-08-01 20:19:00,
2013-08-01 15:24:00,82.6,62.7,29.88,NNW,333,5.0,11.0,51,0.00,,---,0.00,652.00,VWS V14.01,2013-08-01 20:24:00,
2013-08-01 15:29:00,82.6,63.2,29.88,NNW,336,2.0,12.0,52,0.00,,---,0.00,501.00,VWS V14.01,2013-08-01 20:29:00,
2013-08-01 15:35:00,82.6,63.2,29.87,NW,311,6.0,7.0,52,0.00,,---,0.00,680.00,VWS V14.01,2013-08-01 20:35:00,
2013-08-01 15:40:00,82.9,64.6,29.87,NW,315,9.0,11.0,54,0.00,,---,0.00,828.00,VWS V14.01,2013-08-01 20:40:00,
2013-08-01 15:42:00,83.0,63.6,29.87,NW,315,7.0,11.0,52,0.00,,---,0.00,828.00,VWS V14.01,2013-08-01 20:42:00,
2013-08-01 15:47:00,83.1,63.7,29.87,WNW,283,11.0,12.0,52,0.00,,---,0.00,722.00,VWS V14.01,2013-08-01 20:47:00,
2013-08-01 15:52:00,83.2,63.8,29.87,NNW,341,9.0,10.0,52,0.00,,---,0.00,738.00,VWS V14.01,2013-08-01 20:52:00,
2013-08-01 15:57:00,83.5,64.6,29.87,WNW,302,5.0,14.0,53,0.00,,---,0.00,823.00,VWS V14.01,2013-08-01 20:57:00,
2013-08-01 16:02:00,83.5,65.1,29.87,NW,321,9.0,14.0,54,0.00,,---,0.00,241.00,VWS V14.01,2013-08-01 21:02:00,
2013-08-01 16:07:00,82.9,63.5,29.87,NW,322,7.0,14.0,52,0.00,,---,0.00,742.00,VWS V14.01,2013-08-01 21:07:00,
2013-08-01 16:12:00,82.8,63.4,29.87,WNW,298,5.0,14.0,52,0.00,,---,0.00,770.00,VWS V14.01,2013-08-01 21:12:00,
2013-08-01 16:17:00,82.9,63.5,29.87,WNW,300,13.0,14.0,52,0.00,,---,0.00,761.00,VWS V14.01,2013-08-01 21:17:00,
2013-08-01 16:22:00,82.8,62.8,29.87,NW,313,10.0,16.0,51,0.00,,---,0.00,700.00,VWS V14.01,2013-08-01 21:22:00,
2013-08-01 16:27:00,82.8,63.4,29.87,NW,315,12.0,16.0,52,0.00,,---,0.00,700.00,VWS V14.01,2013-08-01 21:27:00,
2013-08-01 16:32:00,82.5,63.7,29.87,NW,315,14.0,16.0,53,0.00,,---,0.00,480.00,VWS V14.01,2013-08-01 21:32:00,
2013-08-01 16:37:00,82.2,62.8,29.87,NW,304,8.0,14.0,52,0.00,,---,0.00,476.00,VWS V14.01,2013-08-01 21:37:00,
2013-08-01 16:43:00,82.2,62.8,29.86,WNW,302,9.0,14.0,52,0.00,,---,0.00,371.00,VWS V14.01,2013-08-01 21:43:00,
2013-08-01 16:48:00,82.3,62.9,29.87,WNW,292,10.0,14.0,52,0.00,,---,0.00,462.00,VWS V14.01,2013-08-01 21:48:00,
2013-08-01 16:53:00,82.5,63.7,29.87,NW,318,11.0,15.0,53,0.00,,---,0.00,494.00,VWS V14.01,2013-08-01 21:53:00,
2013-08-01 16:58:00,82.5,62.6,29.87,NW,319,10.0,15.0,51,0.00,,---,0.00,420.00,VWS V14.01,2013-08-01 21:58:00,
2013-08-01 17:03:00,82.3,62.4,29.87,NW,318,11.0,15.0,51,0.00,,---,0.00,650.00,VWS V14.01,2013-08-01 22:03:00,
2013-08-01 17:08:00,82.5,62.6,29.87,NW,306,9.0,13.0,51,0.00,,---,0.00,559.00,VWS V14.01,2013-08-01 22:08:00,
2013-08-01 17:13:00,82.8,62.8,29.86,NW,308,12.0,14.0,51,0.00,,---,0.00,603.00,VWS V14.01,2013-08-01 22:13:00,
2013-08-01 17:18:00,82.9,62.9,29.86,WNW,302,11.0,14.0,51,0.00,,---,0.00,649.00,VWS V14.01,2013-08-01 22:18:00,
2013-08-01 17:23:00,82.8,62.3,29.87,NW,306,10.0,16.0,50,0.00,,---,0.00,468.00,VWS V14.01,2013-08-01 22:23:00,
2013-08-01 17:28:00,82.4,62.5,29.86,NW,308,11.0,16.0,51,0.00,,---,0.00,399.00,VWS V14.01,2013-08-01 22:28:00,
2013-08-01 17:33:00,82.0,62.7,29.86,NW,307,12.0,16.0,52,0.00,,---,0.00,279.00,VWS V14.01,2013-08-01 22:33:00,
2013-08-01 17:38:00,81.7,61.8,29.86,WNW,293,12.0,14.0,51,0.00,,---,0.00,287.00,VWS V14.01,2013-08-01 22:38:00,
2013-08-01 17:43:00,81.5,62.7,29.86,NW,314,9.0,14.0,53,0.00,,---,0.00,288.00,VWS V14.01,2013-08-01 22:43:00,
2013-08-01 17:48:00,81.4,62.6,29.86,NW,319,9.0,14.0,53,0.00,,---,0.00,577.00,VWS V14.01,2013-08-01 22:48:00,
2013-08-01 17:53:00,81.7,62.9,29.86,NW,304,11.0,12.0,53,0.00,,---,0.00,559.00,VWS V14.01,2013-08-01 22:53:00,
2013-08-01 17:58:00,82.0,63.2,29.86,NW,309,9.0,12.0,53,0.00,,---,0.00,485.00,VWS V14.01,2013-08-01 22:58:00,
2013-08-01 18:04:00,82.1,63.8,29.85,NW,317,10.0,10.0,54,0.00,,---,0.00,441.00,VWS V14.01,2013-08-01 23:04:00,
2013-08-01 18:09:00,81.9,63.1,29.85,NW,310,10.0,14.0,53,0.00,,---,0.00,411.00,VWS V14.01,2013-08-01 23:09:00,
2013-08-01 18:14:00,81.8,63.0,29.85,NNW,327,10.0,14.0,53,0.00,,---,0.00,388.00,VWS V14.01,2013-08-01 23:14:00,
2013-08-01 18:19:00,81.6,63.4,29.85,NNW,328,10.0,14.0,54,0.00,,---,0.00,367.00,VWS V14.01,2013-08-01 23:19:00,
2013-08-01 18:24:00,81.3,63.1,29.84,NW,319,10.0,14.0,54,0.00,,---,0.00,350.00,VWS V14.01,2013-08-01 23:24:00,
2013-08-01 18:29:00,81.1,62.9,29.85,NW,319,10.0,14.0,54,0.00,,---,0.00,329.00,VWS V14.01,2013-08-01 23:29:00,
2013-08-01 18:34:00,80.9,63.2,29.84,NNW,327,8.0,12.0,55,0.00,,---,0.00,290.00,VWS V14.01,2013-08-01 23:34:00,
2013-08-01 18:39:00,80.7,63.0,29.84,NW,313,10.0,12.0,55,0.00,,---,0.00,288.00,VWS V14.01,2013-08-01 23:39:00,
2013-08-01 18:44:00,80.4,63.3,29.84,NW,313,11.0,14.0,56,0.00,,---,0.00,260.00,VWS V14.01,2013-08-01 23:44:00,
2013-08-01 18:49:00,80.0,62.4,29.84,NW,309,13.0,13.0,55,0.00,,---,0.00,250.00,VWS V14.01,2013-08-01 23:49:00,
2013-08-01 18:54:00,79.8,62.2,29.85,NW,314,10.0,15.0,55,0.00,,---,0.00,225.00,VWS V14.01,2013-08-01 23:54:00,
2013-08-01 19:01:00,79.6,62.5,29.84,NW,320,7.0,15.0,56,0.00,,---,0.00,204.00,VWS V14.01,2013-08-02 00:01:00,
2013-08-01 19:06:00,79.4,62.3,29.84,NW,321,12.0,13.0,56,0.00,,---,0.00,188.00,VWS V14.01,2013-08-02 00:06:00,
2013-08-01 19:11:00,79.2,62.2,29.85,NW,311,9.0,13.0,56,0.00,,---,0.00,171.00,VWS V14.01,2013-08-02 00:11:00,
2013-08-01 19:16:00,79.0,62.5,29.85,NW,309,10.0,13.0,57,0.00,,---,0.00,151.00,VWS V14.01,2013-08-02 00:16:00,
2013-08-01 19:22:00,78.7,62.2,29.85,NW,323,11.0,11.0,57,0.00,,---,0.00,130.00,VWS V14.01,2013-08-02 00:22:00,
2013-08-01 19:27:00,78.5,63.0,29.85,NW,314,5.0,12.0,59,0.00,,---,0.00,120.00,VWS V14.01,2013-08-02 00:27:00,
2013-08-01 19:33:00,78.3,62.8,29.85,NW,309,8.0,12.0,59,0.00,,---,0.00,113.00,VWS V14.01,2013-08-02 00:33:00,
2013-08-01 19:38:00,78.0,62.5,29.84,NW,310,7.0,9.0,59,0.00,,---,0.00,93.00,VWS V14.01,2013-08-02 00:38:00,
2013-08-01 19:43:00,77.7,62.2,29.84,NW,307,6.0,10.0,59,0.00,,---,0.00,88.00,VWS V14.01,2013-08-02 00:43:00,
2013-08-01 19:48:00,77.5,61.6,29.84,NW,304,6.0,10.0,58,0.00,,---,0.00,72.00,VWS V14.01,2013-08-02 00:48:00,
2013-08-01 19:53:00,77.3,61.4,29.84,NW,305,5.0,9.0,58,0.00,,---,0.00,58.00,VWS V14.01,2013-08-02 00:53:00,
2013-08-01 19:58:00,77.0,61.1,29.84,NW,304,5.0,9.0,58,0.00,,---,0.00,44.00,VWS V14.01,2013-08-02 00:58:00,
2013-08-01 20:03:00,76.6,61.2,29.84,NW,305,5.0,9.0,59,0.00,,---,0.00,35.00,VWS V14.01,2013-08-02 01:03:00,
2013-08-01 20:08:00,76.0,61.6,29.84,NW,305,3.0,5.0,61,0.00,,---,0.00,25.00,VWS V14.01,2013-08-02 01:08:00,
2013-08-01 20:14:00,75.4,61.9,29.84,NW,304,2.0,5.0,63,0.00,,---,0.00,23.00,VWS V14.01,2013-08-02 01:14:00,
2013-08-01 20:19:00,74.8,60.9,29.84,NW,304,3.0,4.0,62,0.00,,---,0.00,19.00,VWS V14.01,2013-08-02 01:19:00,
2013-08-01 20:24:00,74.3,60.5,29.84,NW,304,3.0,5.0,62,0.00,,---,0.00,14.00,VWS V14.01,2013-08-02 01:24:00,
2013-08-01 20:29:00,73.8,60.4,29.84,NW,305,5.0,5.0,63,0.00,,---,0.00,11.00,VWS V14.01,2013-08-02 01:29:00,
2013-08-01 20:34:00,73.3,60.0,29.84,NW,304,4.0,4.0,63,0.00,,---,0.00,9.00,VWS V14.01,2013-08-02 01:34:00,
2013-08-01 20:39:00,72.8,60.8,29.84,NW,305,1.0,5.0,66,0.00,,---,0.00,5.00,VWS V14.01,2013-08-02 01:39:00,
2013-08-01 20:44:00,72.2,61.1,29.83,NW,305,3.0,5.0,68,0.00,,---,0.00,0.00,VWS V14.01,2013-08-02 01:44:00,
2013-08-01 20:49:00,71.5,61.2,29.83,NW,305,1.0,2.0,70,0.00,,---,0.00,0.00,VWS V14.01,2013-08-02 01:49:00,
2013-08-01 20:54:00,70.8,60.9,29.83,NW,305,1.0,3.0,71,0.00,,---,0.00,0.00,VWS V14.01,2013-08-02 01:54:00,
2013-08-01 20:59:00,70.3,60.1,29.83,NW,305,0.0,3.0,70,0.00,,---,0.00,0.00,VWS V14.01,2013-08-02 01:59:00,
2013-08-01 21:04:00,70.1,59.9,29.84,NW,305,0.0,0.0,70,0.00,,---,0.00,0.00,VWS V14.01,2013-08-02 02:04:00,
2013-08-01 21:10:00,69.9,59.3,29.84,NW,305,2.0,3.0,69,0.00,,---,0.00,0.00,VWS V14.01,2013-08-02 02:10:00,
2013-08-01 21:14:00,69.9,59.7,29.84,NW,304,0.0,3.0,70,0.00,,---,0.00,0.00,VWS V14.01,2013-08-02 02:14:00,
2013-08-01 21:20:00,69.8,59.6,29.84,NW,305,0.0,0.0,70,0.00,,---,0.00,0.00,VWS V14.01,2013-08-02 02:20:00,
2013-08-01 21:25:00,69.7,59.1,29.85,NW,305,0.0,0.0,69,0.00,,---,0.00,0.00,VWS V14.01,2013-08-02 02:25:00,
2013-08-01 21:30:00,69.5,59.3,29.85,NW,304,0.0,0.0,70,0.00,,---,0.00,0.00,VWS V14.01,2013-08-02 02:30:00,
2013-08-01 21:35:00,69.4,59.2,29.86,NW,304,0.0,0.0,70,0.00,,---,0.00,0.00,VWS V14.01,2013-08-02 02:35:00,
2013-08-01 21:40:00,69.3,59.5,29.86,NW,304,0.0,0.0,71,0.00,,---,0.00,0.00,VWS V14.01,2013-08-02 02:40:00,
2013-08-01 21:45:00,69.2,59.4,29.86,NW,305,0.0,0.0,71,0.00,,---,0.00,0.00,VWS V14.01,2013-08-02 02:45:00,
2013-08-01 21:50:00,69.1,59.3,29.86,NW,305,1.0,3.0,71,0.00,,---,0.00,0.00,VWS V14.01,2013-08-02 02:50:00,
2013-08-01 21:55:00,69.1,59.7,29.86,NW,304,0.0,3.0,72,0.00,,---,0.00,0.00,VWS V14.01,2013-08-02 02:55:00,
2013-08-01 22:00:00,69.0,59.6,29.86,NW,305,0.0,3.0,72,0.00,,---,0.00,0.00,VWS V14.01,2013-08-02 03:00:00,
2013-08-01 22:05:00,68.8,59.4,29.86,NW,305,1.0,1.0,72,0.00,,---,0.00,0.00,VWS V14.01,2013-08-02 03:05:00,
2013-08-01 22:10:00,68.5,59.5,29.86,NW,305,0.0,1.0,73,0.00,,---,0.00,0.00,VWS V14.01,2013-08-02 03:10:00,
2013-08-01 22:15:00,68.2,59.6,29.86,NW,305,3.0,5.0,74,0.00,,---,0.00,0.00,VWS V14.01,2013-08-02 03:15:00,
2013-08-01 22:20:00,67.7,59.1,29.87,NW,305,3.0,5.0,74,0.00,,---,0.00,0.00,VWS V14.01,2013-08-02 03:20:00,
2013-08-01 22:25:00,67.3,59.5,29.87,NW,305,2.0,5.0,76,0.00,,---,0.00,0.00,VWS V14.01,2013-08-02 03:25:00,
2013-08-01 22:30:00,66.8,59.4,29.87,NW,304,2.0,5.0,77,0.00,,---,0.00,0.00,VWS V14.01,2013-08-02 03:30:00,
2013-08-01 22:35:00,66.5,59.4,29.87,NW,304,2.0,3.0,78,0.00,,---,0.00,0.00,VWS V14.01,2013-08-02 03:35:00,
2013-08-01 22:40:00,66.4,58.6,29.87,NW,305,3.0,4.0,76,0.00,,---,0.00,0.00,VWS V14.01,2013-08-02 03:40:00,
2013-08-01 22:45:00,66.5,58.7,29.87,NW,305,0.0,5.0,76,0.00,,---,0.00,0.00,VWS V14.01,2013-08-02 03:45:00,
2013-08-01 22:51:00,66.6,58.4,29.87,NW,304,2.0,2.0,75,0.00,,---,0.00,0.00,VWS V14.01,2013-08-02 03:51:00,
2013-08-01 22:56:00,66.7,58.5,29.86,NW,304,2.0,4.0,75,0.00,,---,0.00,0.00,VWS V14.01,2013-08-02 03:56:00,
2013-08-01 23:01:00,66.5,58.7,29.86,NW,305,3.0,4.0,76,0.00,,---,0.00,0.00,VWS V14.01,2013-08-02 04:01:00,
2013-08-01 23:02:00,66.5,58.7,29.86,NW,305,3.0,4.0,76,0.00,,---,0.00,0.00,VWS V14.01,2013-08-02 04:02:00,
2013-08-01 23:07:00,66.1,59.0,29.86,NW,305,3.0,4.0,78,0.00,,---,0.00,0.00,VWS V14.01,2013-08-02 04:07:00,
2013-08-01 23:12:00,65.7,59.0,29.86,NW,304,3.0,4.0,79,0.00,,---,0.00,0.00,VWS V14.01,2013-08-02 04:12:00,
2013-08-01 23:15:00,65.5,59.2,29.86,NW,304,4.0,5.0,80,0.00,,---,0.00,0.00,VWS V14.01,2013-08-02 04:15:00,
2013-08-01 23:16:00,65.5,59.2,29.86,NW,305,4.0,5.0,80,0.00,,---,0.00,0.00,VWS V14.01,2013-08-02 04:16:00,
2013-08-01 23:21:00,65.2,58.9,29.86,NW,305,3.0,4.0,80,0.00,,---,0.00,0.00,VWS V14.01,2013-08-02 04:21:00,
2013-08-01 23:26:00,65.0,58.7,29.86,NW,305,4.0,4.0,80,0.00,,---,0.00,0.00,VWS V14.01,2013-08-02 04:26:00,
2013-08-01 23:31:00,64.9,58.6,29.87,NW,304,0.0,4.0,80,0.00,,---,0.00,0.00,VWS V14.01,2013-08-02 04:31:00,
2013-08-01 23:36:00,64.8,58.5,29.86,NW,304,0.0,0.0,80,0.00,,---,0.00,0.00,VWS V14.01,2013-08-02 04:36:00,
2013-08-01 23:41:00,64.6,58.3,29.86,NW,304,0.0,0.0,80,0.00,,---,0.00,0.00,VWS V14.01,2013-08-02 04:41:00,
2013-08-01 23:46:00,64.6,58.0,29.86,NW,305,4.0,5.0,79,0.00,,---,0.00,0.00,VWS V14.01,2013-08-02 04:46:00,
2013-08-01 23:51:00,64.6,57.6,29.86,NW,305,3.0,4.0,78,0.00,,---,0.00,0.00,VWS V14.01,2013-08-02 04:51:00,
2013-08-01 23:56:00,64.5,57.5,29.86,NW,304,3.0,4.0,78,0.00,,---,0.00,0.00,VWS V14.01,2013-08-02 04:56:00,